EHI
14 16 20 21 17 13 9 6 6 7 10 11 12 11 11 14 18 17 13 11 9 7 6 6 5 6 8 9 11 11 11 10 8 5 4 5 4 2 1 2 1 0 0
13 15 19 20 19 15 11 8 8 9 10 10 11 12 13 16 19 18 14 11 9 7 8 8 8 8 10 11 12 13 12 11 9 7 4 3 3 3 3 3 3 1 1
12 13 16 19 19 16 14 14 12 11 11 10 11 12 14 17 18 17 15 12 10 9 9 10 11 11 11 12 12 13 12 11 11 9 5 2 2 3 4 4 4 4 3
12 11 13 15 16 15 16 17 15 14 13 13 12 12 14 16 16 16 15 14 13 12 11 11 11 11 11 11 11 11 11 10 11 10 6 2 2 4 5 6 5 5 5
11 10 11 11 12 13 15 16 16 15 15 14 13 13 13 14 14 14 14 14 15 14 12 11 10 10 10 9 9 9 11 11 11 10 6 3 3 5 7 7 5 4 4
13 11 9 9 10 11 13 15 14 14 15 14 14 14 13 13 11 10 10 13 15 16 15 12 9 8 8 6 5 5 7 8 8 8 6 3 4 5 6 6 5 4 4
14 11 9 9 9 9 11 12 13 14 15 15 14 14 14 12 8 5 6 10 13 16 17 14 11 9 8 8 5 3 3 4 5 7 7 6 5 5 6 6 6 6 6
11 11 10 8 7 8 10 11 13 14 15 15 16 16 15 12 6 2 4 8 12 15 15 13 11 11 11 10 8 6 5 4 4 6 8 7 5 5 5 5 6 6 6
8 9 9 7 7 8 10 11 13 15 16 16 16 16 16 12 5 1 4 10 13 13 13 11 10 10 10 9 9 9 9 7 5 4 5 5 4 3 4 5 6 6 6
6 7 7 7 8 9 10 11 13 14 15 15 15 15 15 12 6 1 4 12 15 14 13 11 8 7 6 5 7 9 9 9 7 5 3 2 2 2 3 5 6 6 6
5 5 6 7 7 9 10 11 12 13 14 13 13 13 13 11 7 2 3 10 14 13 12 11 8 5 3 2 4 6 7 7 7 6 5 4 3 3 4 4 4 4 4
5 5 6 7 7 8 10 12 13 13 12 11 11 11 10 10 7 3 1 4 8 10 10 10 8 4 1 0 1 2 3 4 5 6 6 5 4 4 4 4 3 3 3
4 5 6 7 8 9 10 11 12 12 11 11 10 10 10 10 8 5 1 1 3 6 8 7 6 3 1 0 0 0 1 2 4 5 6 5 4 3 3 3 3 3 3
4 5 7 8 8 9 9 9 9 9 9 10 10 10 10 10 9 7 5 3 3 4 6 6 5 3 2 1 2 1 2 2 3 3 4 4 3 2 1 2 3 3 3
6 6 7 7 7 6 5 5 5 5 6 7 8 9 9 9 8 8 7 5 4 4 5 6 6 5 4 4 5 4 4 3 2 1 2 3 3 2 1 1 2 3 3
6 5 5 5 4 2 1 1 1 1 2 3 4 5 6 5 4 4 4 3 2 2 4 6 6 6 6 6 6 6 5 4 2 1 1 2 3 2 1 0 1 2 2
5 3 2 1 1 0 0 0 0 0 1 1 1 1 2 1 1 1 1 1 0 0 2 5 6 6 6 6 6 6 6 4 3 2 2 2 3 2 1 0 0 1 1
4 2 0 0 0 0 0 0 0 0 1 1 0 0 0 0 0 0 0 0 1 1 3 5 6 6 6 6 6 6 5 4 3 3 2 2 2 1 0 0 0 0 0
3 1 0 0 0 1 1 1 1 1 1 1 0 0 0 0 0 0 0 1 2 3 3 4 5 6 6 6 6 5 4 3 3 3 2 2 1 0 0 0 0 0 0
3 2 0 0 0 1 2 2 2 1 1 1 1 1 0 0 0 0 0 1 2 3 3 3 4 5 6 6 6 4 3 3 3 3 1 1 0 0 0 0 0 0 0
3 2 1 0 0 1 1 1 1 1 1 2 2 1 1 1 1 1 0 0 1 1 2 3 4 4 5 5 5 4 3 3 3 2 1 0 0 0 0 0 0 0 0
2 2 1 0 0 0 0 0 0 0 1 1 1 1 0 1 1 1 0 0 0 0 1 2 3 5 5 4 4 3 2 2 1 1 0 0 0 0 0 0 0 0 0
1 1 1 0 0 0 0 0 0 0 0 0 0 0 0 0 1 1 0 0 0 0 0 1 2 4 5 4 2 1 1 1 0 0 0 0 0 0 0 0 0 0 0
0 0 0 0 0 0 0 0 0 0 0 0 0 0 0 0 0 0 0 0 0 0 1 1 1 2 3 2 1 0 0 0 0 0 0 0 0 0 0 0 0 0 0
0 0 0 0 0 0 0 0 0 0 0 0 0 0 0 0 0 0 0 0 0 1 1 2 2 1 1 1 0 0 0 0 0 0 0 0 0 0 0 0 0 0 0
0 0 0 0 0 0 0 0 0 0 0 0 0 0 0 0 0 0 0 0 1 1 1 1 1 1 0 0 0 0 0 0 0 0 0 0 0 0 0 0 0 0 0
Wind_Speed
2 2 2 2 2 3 2 2 2 2 1 1 1 1 1 1 1 1 1 1 1 1 1 1 1 1 1 1 1 1 1 1 2 1 0 2 2 1 1 1 2 2 4
2 2 1 1 1 2 2 2 1 1 1 1 2 2 2 1 1 2 2 2 2 1 1 1 1 1 1 1 1 1 1 2 2 2 1 1 1 2 2 2 2 2 2
1 2 1 1 1 1 1 1 1 1 2 2 2 2 2 1 1 1 2 2 2 2 1 1 1 1 1 0 1 1 1 1 1 2 1 0 1 1 2 2 2 1 2
1 1 1 1 1 1 1 1 1 2 2 2 1 2 2 2 2 2 2 2 2 2 2 1 1 1 1 2 1 1 1 1 1 2 2 1 1 1 2 2 2 2 2
1 1 1 1 1 1 1 1 1 2 2 2 2 1 1 2 1 1 2 2 2 2 2 2 1 0 1 1 1 1 1 2 2 2 2 1 1 1 2 2 2 2 2
0 1 1 1 1 1 1 1 2 2 2 2 1 1 1 0 2 1 2 2 2 2 2 2 2 3 3 3 2 1 2 3 3 2 2 2 2 2 1 2 2 2 2
0 0 0 1 1 1 2 2 2 2 2 1 1 1 1 0 1 1 1 2 2 2 2 2 2 1 3 3 4 5 4 3 4 4 3 3 3 2 2 3 2 3 3
0 1 1 1 1 1 1 1 1 1 1 1 1 1 1 0 1 0 1 3 2 3 3 3 2 2 2 2 2 2 3 3 4 4 3 3 3 2 3 3 3 3 4
0 1 1 2 1 2 1 1 1 1 1 1 1 2 1 1 1 1 2 2 2 3 3 3 3 3 1 1 3 3 3 3 3 3 3 3 3 3 3 3 3 3 3
1 1 1 2 1 1 1 1 1 1 1 1 1 1 1 1 1 1 3 3 2 3 3 3 3 3 2 2 4 4 4 3 3 3 4 5 5 5 6 5 4 4 3
1 1 1 2 1 1 1 1 1 1 1 1 1 1 1 1 2 2 2 3 2 3 3 2 1 4 3 3 5 4 4 4 4 4 4 4 4 3 4 4 4 4 4
1 1 1 2 2 1 1 1 2 2 2 2 2 2 2 2 1 2 2 3 4 3 3 2 0 3 3 3 4 3 3 5 5 4 4 3 3 3 2 3 3 4 4
2 2 2 2 2 1 2 2 2 2 2 2 2 2 2 1 1 3 4 4 3 3 2 2 0 3 4 4 6 6 6 5 5 5 4 4 3 2 2 2 3 4 5
2 2 2 2 1 1 2 2 2 2 2 2 2 2 2 2 2 1 2 3 3 3 2 2 4 5 5 4 5 6 5 4 4 4 4 3 2 3 3 3 3 3 3
2 2 2 2 1 1 1 2 3 2 2 3 3 3 2 2 1 2 2 2 2 1 2 3 3 3 3 4 4 3 3 4 4 4 4 4 3 3 3 3 3 3 3
3 3 2 2 1 2 2 1 0 2 1 1 3 4 2 2 2 0 1 2 2 3 4 4 3 3 4 4 4 3 4 3 3 4 4 4 4 3 3 3 3 3 3
3 3 3 2 2 2 2 2 2 1 1 2 3 3 4 2 0 1 2 3 3 4 4 4 4 4 4 4 4 4 3 3 3 3 4 4 4 4 4 4 4 4 4
4 3 4 3 3 3 3 3 3 2 2 2 2 3 3 3 3 3 3 3 3 4 4 4 4 4 4 4 4 4 3 3 3 4 4 4 4 4 4 4 4 4 4
4 3 3 3 3 3 3 3 2 3 3 2 1 2 3 3 3 3 4 4 4 4 4 4 4 4 4 3 3 3 4 4 4 4 4 4 4 4 4 4 4 3 4
2 1 3 3 3 2 2 2 2 3 3 2 2 2 1 2 2 2 3 4 4 4 4 4 4 4 4 4 3 3 4 4 4 4 4 4 4 4 5 5 5 4 4
2 2 3 3 2 2 2 2 2 2 2 2 2 1 1 3 3 3 3 3 4 4 4 4 4 4 4 4 4 4 5 4 4 4 4 3 4 3 4 4 4 4 4
2 1 2 2 1 2 2 2 3 2 3 3 2 1 3 4 3 3 3 3 3 4 4 4 4 4 4 4 4 4 4 4 4 4 3 3 3 3 3 4 3 3 4
2 2 1 1 2 1 3 3 3 3 3 3 3 2 2 2 3 3 4 4 4 3 4 4 4 4 3 3 4 4 4 4 4 4 3 3 3 3 3 4 4 4 4
2 2 1 1 2 2 2 2 2 3 3 3 3 3 3 3 3 4 4 3 3 4 4 4 4 5 5 3 3 3 3 3 3 3 3 3 3 3 3 4 4 5 5
2 2 2 2 2 2 3 3 2 2 3 3 3 3 3 3 3 4 4 4 4 4 4 4 3 4 4 4 4 3 1 1 1 2 2 3 3 3 4 4 4 5 5
2 2 2 2 2 2 2 2 2 2 3 3 3 3 4 3 3 3 3 3 4 4 4 3 4 4 4 3 2 1 1 1 1 2 3 2 3 3 3 4 5 4 4
Wind_Direction
182 192 212 218 220 229 243 252 247 261 250 234 249 248 241 226 203 200 224 169 184 183 188 169 209 308 283 257 243 246 250 251 236 246 146 120 133 127 124 158 160 161 132
169 176 182 206 223 232 234 247 236 231 229 221 230 230 231 212 191 195 209 198 193 185 175 181 215 192 218 278 285 272 260 258 242 229 238 166 158 173 179 199 172 158 147
163 175 172 211 216 238 247 235 218 212 217 220 211 217 216 193 186 192 201 203 204 202 198 199 222 225 238 258 285 284 265 231 236 221 229 213 193 191 193 187 170 191 187
159 184 189 219 226 227 239 231 204 195 197 195 196 209 215 210 192 191 197 200 205 204 202 212 220 226 237 233 223 249 268 248 219 229 218 204 194 196 216 208 198 197 207
157 195 211 209 219 216 223 222 209 202 192 178 183 190 211 225 225 210 201 199 212 217 215 217 209 148 21 306 295 288 268 256 235 225 224 227 212 220 238 241 233 229 202
201 236 247 211 212 214 209 201 191 199 198 186 197 205 213 239 39 358 269 214 214 222 230 227 202 186 174 179 192 258 290 271 279 274 258 261 255 252 258 254 256 253 241
317 288 276 251 215 221 214 194 193 197 192 196 210 222 229 91 70 64 283 250 231 237 243 247 247 192 202 200 187 195 207 228 247 268 272 276 264 261 262 253 257 278 290
292 343 341 295 246 228 217 200 200 202 203 203 214 218 233 122 97 179 260 243 248 241 241 241 241 237 215 237 236 227 226 220 227 233 254 271 281 278 262 265 260 248 249
334 343 310 295 264 245 233 227 210 207 204 217 216 231 239 196 140 226 257 243 238 247 247 242 239 233 162 220 237 239 246 241 212 216 236 255 274 259 265 258 248 241 243
318 325 316 289 267 250 255 242 227 230 220 230 214 241 254 258 181 212 249 248 237 238 231 231 222 222 184 210 238 242 244 251 257 229 218 222 227 215 214 237 254 251 260
310 317 303 286 264 241 228 223 228 235 237 247 239 243 244 255 162 178 257 267 263 252 247 240 209 159 184 214 245 248 254 268 259 250 239 232 229 225 218 221 245 255 260
294 295 295 289 282 231 211 219 221 230 227 231 232 244 231 216 179 167 212 260 297 281 273 269 173 143 183 220 236 248 252 253 251 250 251 246 244 244 242 241 239 256 265
276 283 282 278 277 262 228 220 219 223 244 245 243 247 253 250 166 164 194 220 258 275 305 11 306 191 208 218 223 235 237 241 243 245 251 251 255 259 256 240 230 227 238
260 269 265 259 259 256 259 247 245 240 242 250 258 265 267 261 261 214 201 200 203 224 248 198 199 211 231 246 227 222 232 246 257 256 260 257 249 244 242 246 247 241 240
254 254 251 245 244 273 278 289 280 289 304 286 279 273 270 269 344 5 311 291 290 302 282 250 236 226 229 230 229 230 234 231 235 247 252 248 240 241 249 254 257 258 255
238 240 248 247 234 241 252 267 332 291 45 323 314 309 311 26 82 127 295 301 301 283 269 259 256 255 254 249 242 236 230 233 239 245 246 244 241 239 247 250 247 254 259
247 248 255 246 236 236 241 254 256 216 203 247 264 271 273 288 217 233 245 245 242 242 249 256 256 259 260 257 255 253 248 243 251 252 250 246 243 242 242 247 247 246 254
236 217 235 238 241 240 243 249 257 264 247 231 214 221 233 230 228 225 220 219 232 233 251 260 262 261 261 261 261 262 258 250 243 246 247 246 245 247 246 246 248 252 256
242 229 229 248 250 246 248 251 258 266 267 263 249 186 205 214 212 212 208 241 258 255 254 258 265 268 267 264 263 264 264 259 255 252 245 242 242 242 247 252 251 243 256
227 211 250 249 247 250 251 255 259 264 266 264 263 270 202 215 231 219 228 252 257 263 269 268 271 275 274 273 268 261 256 251 246 243 244 242 240 243 245 249 251 249 248
235 178 208 248 255 266 268 272 272 272 270 265 265 306 309 262 255 259 256 252 261 266 270 273 271 269 265 264 265 261 258 257 249 248 247 246 245 245 250 248 246 252 252
245 221 215 238 254 270 277 273 272 270 270 273 276 201 197 253 268 268 268 266 265 269 271 268 267 266 264 264 263 262 260 257 256 253 252 246 246 249 250 251 251 254 256
235 227 216 227 251 244 252 260 266 271 275 274 276 275 238 258 272 276 278 279 278 279 281 274 272 275 275 269 268 265 263 263 263 258 246 242 242 246 249 252 254 258 258
229 231 236 236 250 260 263 267 268 271 273 277 281 284 286 282 280 284 285 289 293 293 290 284 276 277 283 279 270 267 268 278 276 254 237 243 239 242 244 248 255 260 256
232 230 234 243 251 258 263 269 276 285 291 291 287 285 287 288 286 287 291 294 297 300 303 304 298 286 284 280 278 282 340 26 304 292 253 242 242 249 250 249 251 256 257
247 254 252 252 260 265 269 275 283 291 292 292 292 291 293 294 292 292 294 302 304 302 300 302 314 314 308 291 300 347 80 111 234 276 270 248 252 257 257 251 251 256 257